FENGYUN 1C DEB

Satellite information

Favourite Embed

Satellite Type and Status

DEBRISIN ORBIT

Key statistics

Satellite FENGYUN 1C DEB at a glance.

Uptime

9554

Days in orbit

Revolutions

≈ 14.1

Per day

Orbit

SSO

Sun Synchronous Orbit

Inclination

98.7

Latest

Satellite identification and parameters

Extended collection of information and parameters for FENGYUN 1C DEB.

Object identification

Identified? True

Debris? True

Object name: FENGYUN 1C DEB

International designator: 1999-025BLV

Object number (NORAD): 31239

Object ID (CCSDS): 31239

Country: PEOPLES REPUBLIC OF CHINA (PRC)

Current information (Y/N): Y

RCS size: SMALL

Orbital parameters

Period: 102.157 minutes

Inclination: 98.7487 deg

SMA: 7238.894 km

Apoapsis: 895.913 km

Periapsis: 825.606 km

RAAN: 184.859 deg

Eccentricy: 0.0048562

Argument of periapsis: 295.8912 deg

Mean anomaly: 189.5781 deg

Mean motion: 14.09595191 rev/day

Mean motion (dot): 0.00000462 rev/day2

B* drag term: 0.00028562 1/REarth

Two-line elements (TLE)

Creation date: July 4, 2025, 6:39 p.m.

Reference frame: TEME

Reference center: EARTH

Epoch: July 4, 2025, 12:41 p.m. UTC

TLE line 0: 0 FENGYUN 1C DEB

TLE line 1: 1 31239U 99025BLV 25185.52867497 .00000462 00000-0 28562-3 0 9990

TLE line 2: 2 31239 98.7487 184.8590 0048562 295.8912 189.5781 14.09595191937405

Live tracking on map

Real-time ground track for satellite FENGYUN 1C DEB.

In-orbit conjunctions

A list of the most updated potential collisions computed for object FENGYUN 1C DEB.

Target Orbit TCA Probability of collision Miss distance Type
CZ-4 DEB SSO 2025-06-09 02:37:35 0.0002119871 42.0 (m) DEBRIS
METEOR 1-17 DEB LEO 2024-11-14 04:39:05 0.0001183057 842.0 (m) DEBRIS

Associated space launch

Chinese polar orbiting meteorological satellite

FENGYUN 1C DEB was lifted into orbit during the mission ‘Long March 4B | Feng Yun 1C’, on board a Long March 4B space rocket.

The launch took place on May 10, 1999, 1:33 a.m. from Launch Complex 7.

For more information about the launch, click the button.

Launch to space Long March 4B | Feng Yun 1C
Long March 4B | Feng Yun 1C

Agency: N/A

Status: Launch Successful

Launch date: May 10, 1999, 1:33 a.m. UTC

Rocket: Long March 4B

Launch pad: Launch Complex 7

Location: Taiyuan Satellite Launch Center, People's Republic of China

...

Latest news about this satellite

There are no fresh news available about this satellite. Check back as we update our databases every day.


Newsletter sign-up

Weekly statistics, charts and insights to help you stay on top of the space industry.